Probability
0 0 0 0 0 0 0 0 0 0 0 0 0 0 0 0 0 3 6 16 26 35 48 52 48 65 74 71 84 84 77 68 61 39 16 13 3 0 0 0 0 0 0 0
0 0 0 0 0 0 0 0 0 0 0 0 0 0 0 0 0 0 3 6 13 23 19 29 35 39 58 71 74 77 74 65 48 26 13 0 0 0 0 0 0 0 0 0
0 0 0 0 0 0 0 0 0 0 0 0 0 0 0 0 0 0 0 0 3 6 6 6 19 35 52 65 71 74 65 45 26 10 0 0 0 0 0 0 0 0 0 0
0 0 0 0 0 0 0 0 0 0 0 0 0 0 0 0 0 0 0 0 0 0 3 6 6 26 32 48 58 55 45 16 6 0 0 0 0 0 0 0 0 0 0 0
0 0 0 0 0 0 0 0 0 0 0 0 0 0 0 0 0 0 0 0 0 3 3 3 6 10 16 26 35 32 10 3 0 0 0 0 0 0 0 0 0 0 0 0
0 0 0 0 0 0 0 0 0 0 0 0 0 0 0 0 6 6 3 3 3 0 3 3 3 13 23 19 19 13 3 0 0 0 0 0 0 0 0 0 0 0 0 0
0 0 0 0 0 0 0 0 0 0 0 0 0 0 0 10 32 23 13 6 10 13 16 13 19 19 10 16 16 0 0 0 0 0 0 0 0 0 0 0 0 0 0 0
0 0 0 0 0 0 0 0 0 0 0 0 0 0 3 39 52 45 42 35 39 35 29 26 10 6 3 3 0 0 0 0 0 0 0 0 0 0 0 0 0 0 0 0
0 0 0 0 0 0 0 0 0 0 0 0 0 0 3 23 55 52 52 42 35 19 16 10 0 0 0 0 0 0 0 0 0 0 0 0 0 0 0 0 0 0 0 0
0 0 0 0 0 0 0 0 0 0 0 0 0 0 0 3 42 58 32 23 10 6 3 3 0 0 0 0 0 0 0 0 0 0 0 0 0 0 0 0 0 0 0 0
0 0 0 0 0 0 0 0 0 0 0 0 0 0 0 6 42 48 26 13 3 0 0 0 0 0 0 0 0 0 0 0 0 0 0 0 0 0 0 0 0 0 0 0
0 0 0 0 0 0 0 0 0 0 0 0 0 0 0 26 35 26 10 3 0 0 0 0 0 0 0 0 0 0 0 0 0 0 0 0 0 0 0 0 0 0 0 0
0 0 0 0 0 0 0 0 0 0 0 0 0 0 13 29 26 19 6 0 0 0 0 0 0 0 0 0 0 0 0 0 0 0 0 0 0 0 0 0 0 0 0 0
0 0 0 0 0 0 0 0 0 0 0 0 0 0 13 19 19 10 0 0 0 0 0 0 0 0 0 0 0 0 0 0 0 0 0 0 0 0 0 0 0 0 0 0
0 0 0 0 0 0 0 0 0 0 0 0 0 0 6 10 13 6 0 0 0 0 0 0 0 0 0 0 0 0 0 0 0 0 0 0 0 0 0 0 0 0 0 0
0 0 0 0 0 0 0 0 0 0 0 0 0 0 0 6 6 3 3 0 0 0 0 0 0 0 0 0 0 0 0 0 0 0 0 0 0 0 0 0 0 0 0 0
0 0 0 0 0 0 0 0 0 0 0 0 0 0 0 6 0 0 0 0 0 0 0 0 0 0 0 0 0 0 0 0 0 0 0 0 0 0 0 0 0 0 0 0
0 0 0 0 0 0 0 0 0 0 0 0 0 0 0 0 0 0 0 0 0 0 0 0 0 0 0 0 0 0 0 0 0 0 0 0 0 0 0 0 0 0 0 0
0 0 0 0 0 0 0 0 0 0 0 0 0 0 0 0 0 0 0 0 0 0 0 0 0 0 0 0 0 0 0 0 0 0 0 0 0 0 0 0 0 0 0 0
0 0 0 0 0 0 0 0 0 0 0 0 0 0 0 0 0 0 0 0 0 0 0 0 0 0 0 0 0 0 0 0 0 0 0 0 0 0 0 0 0 0 0 0
0 0 0 0 0 0 0 0 0 0 0 0 0 0 0 0 0 0 0 0 0 0 0 0 0 0 0 0 0 0 0 0 0 0 0 0 0 0 0 0 0 0 0 0
0 0 0 0 0 0 0 0 0 0 0 0 0 0 0 0 0 0 0 0 0 0 0 0 0 0 0 0 0 0 0 0 0 0 0 0 0 0 0 0 0 0 0 0
0 0 0 0 0 0 0 0 0 0 0 0 0 0 0 0 0 0 0 0 0 0 0 0 0 0 0 0 0 0 0 0 0 0 0 0 0 0 0 0 0 0 0 0
0 0 0 0 0 0 0 0 0 0 0 0 0 0 0 0 0 0 0 0 0 0 0 0 0 0 0 0 0 0 0 0 0 0 0 0 0 0 0 0 0 0 0 0
0 0 0 0 0 0 0 0 0 0 0 0 0 0 0 0 0 0 0 0 0 0 0 0 0 0 0 0 0 0 0 0 0 0 0 0 0 0 0 0 0 0 0 0
0 0 0 0 0 0 0 0 0 0 0 0 0 0 0 0 0 0 0 0 0 0 0 0 0 0 0 0 0 0 0 0 0 0 0 0 0 0 0 0 0 0 0 0
Height
5799 5805 5810 5815 5820 5825 5828 5831 5835 5839 5841 5842 5844 5848 5851 5851 5852 5854 5855 5856 5858 5860 5862 5863 5864 5864 5865 5864 5863 5861 5859 5857 5854 5851 5849 5846 5843 5840 5837 5834 5833 5831 5830 5829
5794 5799 5804 5808 5812 5816 5820 5824 5830 5835 5837 5837 5838 5840 5845 5846 5847 5848 5849 5850 5851 5854 5855 5857 5858 5859 5859 5859 5858 5856 5854 5851 5848 5845 5842 5839 5835 5832 5830 5827 5826 5824 5822 5820
5788 5794 5798 5801 5805 5809 5813 5818 5823 5827 5829 5829 5830 5833 5838 5841 5841 5843 5843 5844 5845 5846 5849 5850 5851 5852 5853 5853 5852 5850 5848 5845 5842 5839 5836 5832 5828 5824 5822 5821 5819 5817 5815 5813
5782 5787 5791 5795 5799 5803 5808 5812 5814 5817 5820 5821 5823 5825 5831 5834 5836 5837 5838 5837 5838 5840 5841 5843 5845 5846 5846 5847 5846 5844 5841 5838 5835 5831 5827 5823 5820 5816 5815 5814 5812 5810 5808 5806
5777 5782 5785 5789 5793 5797 5802 5804 5806 5808 5811 5814 5816 5818 5824 5827 5830 5832 5832 5831 5832 5833 5835 5837 5838 5839 5839 5839 5839 5837 5834 5830 5827 5823 5818 5814 5812 5809 5807 5806 5804 5802 5800 5799
5770 5775 5779 5783 5787 5790 5793 5796 5798 5801 5805 5809 5812 5814 5817 5820 5822 5824 5825 5825 5825 5826 5828 5829 5831 5832 5832 5832 5830 5828 5825 5822 5818 5814 5810 5806 5803 5801 5800 5798 5796 5794 5793 5792
5765 5769 5772 5776 5780 5783 5787 5790 5793 5796 5799 5804 5808 5809 5811 5813 5815 5816 5817 5818 5819 5819 5820 5822 5823 5824 5824 5824 5822 5820 5817 5814 5810 5805 5801 5797 5794 5793 5791 5790 5788 5787 5786 5785
5760 5765 5768 5771 5775 5779 5782 5786 5789 5792 5795 5799 5801 5803 5806 5807 5808 5809 5810 5811 5812 5813 5814 5815 5816 5816 5816 5815 5814 5812 5809 5805 5802 5799 5794 5789 5786 5785 5784 5782 5782 5780 5779 5777
5755 5760 5764 5767 5772 5776 5778 5781 5785 5788 5790 5793 5795 5797 5799 5801 5802 5804 5805 5806 5806 5807 5808 5809 5809 5809 5808 5808 5806 5804 5801 5797 5794 5791 5787 5783 5781 5779 5778 5776 5775 5773 5771 5769
5750 5754 5759 5763 5767 5770 5774 5777 5780 5782 5784 5787 5790 5792 5794 5795 5797 5798 5799 5800 5801 5802 5802 5802 5802 5802 5801 5800 5798 5796 5793 5790 5787 5784 5781 5777 5775 5773 5772 5770 5767 5765 5762 5759
5748 5751 5754 5758 5761 5765 5768 5772 5774 5777 5779 5782 5784 5789 5789 5789 5791 5792 5793 5794 5795 5795 5796 5795 5795 5794 5793 5791 5790 5787 5785 5782 5779 5776 5773 5770 5768 5765 5763 5761 5758 5755 5751 5747
5745 5748 5751 5754 5756 5759 5762 5765 5769 5772 5774 5777 5779 5784 5783 5784 5785 5786 5786 5787 5788 5788 5788 5788 5787 5786 5785 5783 5781 5779 5776 5773 5770 5767 5764 5761 5759 5756 5753 5751 5747 5744 5739 5735
5742 5745 5748 5750 5753 5755 5757 5759 5762 5765 5768 5770 5773 5777 5776 5777 5778 5778 5779 5779 5780 5780 5780 5780 5779 5778 5776 5774 5772 5770 5767 5764 5761 5758 5755 5752 5749 5746 5743 5739 5736 5732 5727 5722
5737 5739 5743 5745 5746 5749 5751 5754 5756 5760 5762 5763 5766 5768 5768 5769 5770 5770 5770 5770 5770 5771 5771 5770 5769 5768 5767 5765 5762 5760 5757 5754 5752 5749 5746 5742 5739 5735 5731 5727 5723 5719 5714 5709
5730 5732 5734 5737 5739 5742 5744 5746 5749 5751 5753 5756 5757 5758 5759 5760 5760 5761 5761 5760 5760 5761 5761 5760 5759 5758 5756 5754 5752 5750 5747 5744 5741 5738 5735 5731 5727 5723 5719 5714 5710 5705 5700 5695
5722 5724 5726 5728 5730 5733 5735 5738 5740 5742 5744 5746 5748 5749 5750 5749 5750 5750 5750 5750 5751 5751 5750 5750 5749 5747 5746 5743 5741 5739 5736 5733 5729 5726 5722 5718 5714 5709 5705 5700 5696 5691 5686 5681
5714 5716 5718 5719 5721 5723 5726 5729 5731 5733 5734 5737 5739 5741 5740 5740 5740 5740 5740 5741 5740 5740 5739 5739 5738 5736 5734 5732 5730 5727 5724 5720 5717 5713 5708 5704 5700 5695 5691 5686 5682 5677 5672 5667
5706 5707 5709 5711 5713 5715 5719 5719 5721 5723 5725 5727 5729 5729 5730 5730 5730 5730 5730 5730 5730 5729 5729 5728 5726 5724 5722 5719 5716 5713 5710 5707 5703 5699 5695 5691 5686 5682 5677 5673 5668 5663 5658 5654
5699 5700 5701 5703 5704 5706 5710 5711 5712 5714 5716 5718 5719 5719 5720 5721 5721 5721 5721 5720 5720 5719 5718 5716 5714 5712 5710 5707 5704 5701 5697 5693 5690 5686 5682 5677 5673 5669 5664 5660 5655 5650 5646 5642
5694 5694 5695 5696 5697 5699 5702 5703 5704 5707 5708 5710 5710 5710 5711 5712 5712 5713 5712 5711 5710 5709 5707 5705 5703 5701 5698 5695 5691 5688 5684 5680 5676 5672 5668 5664 5660 5656 5651 5647 5643 5638 5634 5630
5689 5689 5690 5690 5691 5692 5694 5694 5696 5700 5701 5700 5700 5701 5701 5702 5702 5702 5701 5700 5699 5697 5696 5694 5691 5689 5686 5683 5679 5676 5672 5668 5664 5660 5656 5652 5648 5644 5640 5635 5631 5626 5622 5618
5685 5685 5685 5685 5686 5688 5687 5688 5690 5691 5691 5692 5692 5692 5692 5692 5692 5692 5691 5690 5689 5687 5685 5683 5681 5678 5675 5672 5668 5664 5661 5657 5653 5649 5645 5641 5637 5632 5628 5623 5619 5615 5610 5606
5681 5681 5681 5681 5683 5682 5682 5682 5683 5684 5684 5684 5684 5684 5684 5684 5684 5683 5683 5682 5680 5678 5676 5674 5671 5668 5665 5661 5658 5654 5650 5646 5642 5638 5634 5630 5625 5621 5617 5612 5608 5603 5599 5594
5678 5677 5677 5677 5677 5677 5677 5677 5677 5677 5677 5677 5677 5676 5676 5676 5676 5675 5674 5673 5671 5669 5667 5664 5661 5658 5655 5652 5648 5645 5641 5637 5632 5628 5623 5619 5615 5610 5605 5601 5597 5592 5588 5584
5675 5674 5674 5673 5673 5672 5672 5671 5671 5671 5670 5670 5669 5669 5668 5668 5668 5667 5666 5664 5663 5661 5658 5656 5653 5650 5647 5644 5640 5636 5632 5628 5623 5618 5614 5609 5604 5599 5595 5591 5587 5583 5579 5576
5672 5671 5670 5670 5669 5668 5667 5666 5665 5664 5664 5663 5662 5662 5661 5660 5660 5659 5658 5657 5655 5653 5651 5649 5647 5644 5641 5637 5633 5629 5625 5620 5615 5609 5604 5599 5595 5590 5586 5583 5579 5575 5572 5569
Wind_Speed
36 37 37 35 35 35 38 39 39 39 41 41 40 36 33 34 35 35 35 34 33 31 27 25 22 21 20 21 24 27 29 31 33 33 32 31 31 30 31 30 33 34 34 35
35 35 34 35 36 37 38 39 38 38 41 44 45 43 38 37 38 37 36 35 33 31 29 28 26 24 23 23 26 28 31 33 35 35 35 33 33 32 30 29 29 31 33 34
34 32 32 34 36 36 37 36 35 36 40 44 46 46 42 40 40 39 37 37 35 32 31 31 29 27 26 26 28 30 33 36 37 37 36 36 35 33 30 29 28 28 29 31
33 32 32 34 35 35 34 32 33 36 39 41 44 45 42 40 40 39 38 38 36 34 33 33 32 31 30 30 31 34 37 38 40 39 38 38 37 36 32 28 27 26 27 28
31 30 31 33 33 33 29 29 32 34 37 39 41 42 40 39 39 38 39 39 38 36 36 35 34 34 34 35 36 38 40 42 42 41 41 39 39 36 32 28 27 26 27 28
31 30 32 33 32 31 29 31 33 35 36 38 36 39 39 37 37 37 38 39 39 38 38 37 36 36 37 39 40 42 43 44 43 43 43 40 39 36 31 29 29 27 28 30
31 32 34 34 34 34 33 34 35 34 35 35 32 36 37 36 36 36 37 38 38 39 38 38 37 38 39 41 42 42 43 43 43 45 44 41 37 33 30 30 29 29 31 34
29 31 33 33 34 33 34 35 35 35 35 32 30 33 33 32 31 32 33 33 33 34 35 35 36 36 36 36 36 37 38 40 40 41 40 37 35 33 32 31 31 32 34 37
26 28 29 30 30 31 32 34 33 34 34 32 32 32 32 29 27 28 29 30 30 30 31 30 30 30 30 31 32 34 36 38 38 38 38 38 37 35 33 33 35 36 38 41
24 24 26 28 31 33 34 34 34 34 33 32 32 30 28 26 26 27 28 30 30 30 30 30 29 29 29 30 32 34 36 37 39 41 41 40 38 37 36 37 38 40 43 46
21 22 24 29 34 36 36 36 35 35 33 31 30 28 27 27 27 28 29 30 30 29 28 28 28 29 30 32 34 37 39 41 43 44 42 42 40 40 39 40 42 45 47 51
20 20 24 29 33 35 35 36 35 34 33 32 31 30 28 28 28 29 30 30 30 29 28 28 29 31 33 36 38 41 43 44 46 44 42 41 41 40 42 43 46 49 52 56
21 21 23 28 32 35 35 35 35 35 34 33 32 33 31 31 32 32 32 32 31 30 30 30 32 34 36 39 41 43 45 46 45 43 43 42 41 43 45 48 50 53 55 58
25 26 25 28 31 33 34 34 35 35 35 35 36 36 37 37 37 37 37 36 35 34 33 34 35 38 40 42 43 44 45 45 44 43 44 44 46 48 49 51 53 55 57 59
30 30 30 31 33 34 35 35 36 37 37 36 37 38 40 42 43 41 40 39 37 36 37 38 39 41 43 44 45 45 44 45 46 47 47 48 49 50 51 52 53 55 57 59
34 35 35 36 37 38 38 38 37 38 39 39 40 41 41 42 42 41 40 40 40 39 40 41 42 43 43 44 44 45 47 49 50 50 50 50 50 50 50 51 53 54 55 56
35 37 38 38 38 40 42 41 41 41 41 40 41 41 42 42 42 41 40 39 39 40 40 41 43 44 45 46 49 51 52 52 51 50 50 49 49 49 50 51 52 53 53 53
31 34 37 37 39 40 38 38 38 38 38 38 39 39 40 39 39 39 39 39 39 40 42 43 44 45 47 49 50 50 51 51 51 50 49 48 48 48 48 49 50 50 49 49
25 28 31 32 33 35 36 34 32 32 32 33 33 33 34 36 36 37 36 37 38 39 40 42 44 46 48 49 50 51 51 50 49 47 46 46 45 46 46 47 47 47 46 47
20 22 24 26 27 28 29 29 29 30 31 30 32 33 34 35 37 37 37 38 40 41 43 45 47 49 50 50 50 49 48 46 45 44 43 43 43 43 44 44 44 44 45 46
18 19 20 21 22 23 24 24 25 26 27 29 31 33 34 36 37 38 39 40 42 43 44 45 46 46 46 45 45 44 43 42 42 42 42 41 41 41 42 42 43 44 44 44
16 16 17 17 19 19 20 21 22 22 23 26 28 30 31 33 34 36 37 38 39 39 40 41 41 42 42 41 41 41 40 40 39 39 38 39 39 40 40 41 42 42 43 43
14 15 15 15 17 16 17 19 20 22 23 24 25 27 29 30 31 32 33 35 36 37 38 38 39 39 39 38 38 37 37 36 36 36 37 37 38 38 39 40 41 41 41 40
13 13 13 14 14 16 16 17 19 21 22 23 25 26 28 29 30 31 32 33 34 34 35 35 35 35 34 33 32 32 32 32 33 34 35 36 37 38 39 39 39 38 37 35
13 13 13 14 15 16 17 18 19 21 22 23 25 26 27 28 29 30 30 30 30 30 30 29 28 27 26 26 27 28 29 30 31 33 35 36 37 37 37 36 34 32 30 29
14 13 14 14 15 16 16 18 19 20 21 22 23 24 25 25 25 25 25 24 24 24 23 22 21 21 22 23 24 26 27 29 32 33 34 34 33 32 31 30 28 27 26 25
Wind_Direction
232 232 230 229 230 231 232 232 232 233 235 240 245 248 248 250 253 257 259 259 260 261 262 262 267 273 282 291 298 302 304 306 305 302 300 299 294 291 289 282 276 272 274 277
232 232 230 228 228 229 232 234 234 234 236 239 244 249 250 252 253 255 258 260 262 261 260 263 267 272 279 286 292 296 300 300 300 297 294 294 293 291 290 290 285 277 275 278
233 231 229 230 231 231 232 234 234 232 232 237 241 244 247 248 250 254 259 262 264 263 262 263 265 269 275 281 287 291 295 295 295 293 289 289 289 290 293 294 289 283 280 279
231 228 227 229 231 232 233 233 233 233 233 237 241 245 245 246 247 252 257 261 262 262 262 263 266 270 274 277 281 285 288 289 289 287 285 287 287 289 296 297 295 287 285 286
230 228 227 228 230 232 231 230 231 232 234 237 242 247 248 248 249 251 255 259 262 262 263 264 267 271 274 277 280 282 284 285 285 282 283 284 284 290 301 299 297 291 290 295
225 224 225 225 226 228 223 224 228 231 235 238 239 247 252 252 252 252 254 258 262 263 265 268 270 272 275 277 279 281 282 283 283 281 282 285 286 295 299 299 298 294 295 297
223 223 224 223 223 223 220 221 225 229 234 237 238 244 251 254 256 256 257 259 260 263 265 267 269 271 272 274 276 278 280 282 282 284 285 287 292 299 298 295 294 294 295 295
222 222 225 225 224 223 219 222 227 230 233 236 236 243 248 252 254 256 257 259 261 263 265 266 267 268 269 271 273 276 278 281 284 289 291 293 299 300 297 294 293 293 293 295
220 221 223 225 221 220 220 224 228 234 237 239 240 244 247 249 250 252 255 257 260 263 266 266 267 268 270 273 276 278 281 284 289 295 299 301 301 299 296 293 293 294 294 296
218 216 213 214 212 215 220 221 226 233 238 240 241 243 246 248 250 252 255 257 260 263 265 266 269 273 276 278 281 285 288 292 295 298 299 302 302 299 297 293 294 295 295 296
224 218 204 207 209 213 218 223 229 235 239 242 244 246 249 256 257 258 258 260 261 264 266 270 275 279 282 285 289 291 292 295 296 296 297 299 299 297 296 294 295 294 295 296
230 226 210 208 212 217 223 228 231 237 240 243 247 250 254 261 264 264 263 262 262 264 268 273 278 283 286 289 292 293 294 295 296 295 295 296 296 295 295 295 295 295 295 295
239 238 227 218 220 222 227 231 235 239 243 245 248 252 255 260 263 265 265 263 263 266 270 276 282 286 289 291 292 294 294 295 294 292 293 294 295 296 296 296 296 295 294 294
245 246 242 234 232 233 236 238 240 243 245 248 250 254 256 258 260 262 263 263 263 267 272 278 284 287 290 292 293 294 293 293 293 292 293 294 295 296 296 296 296 295 294 294
250 251 249 247 243 241 242 242 244 246 247 249 251 255 257 258 259 260 260 260 263 269 275 280 285 289 291 292 292 292 292 292 294 296 296 296 296 296 295 294 294 293 293 293
255 255 254 252 251 247 245 244 245 247 250 251 252 254 257 258 258 259 260 263 268 274 279 283 286 288 289 290 290 290 292 295 297 299 298 297 296 295 293 293 293 293 293 293
257 257 257 258 257 253 249 247 247 248 249 253 256 258 261 263 264 268 271 273 276 280 282 284 285 286 287 288 290 292 295 297 298 298 298 297 295 293 293 293 294 294 294 294
259 259 260 262 262 262 260 259 259 259 259 262 264 267 270 273 275 278 280 281 281 281 282 282 284 285 288 290 292 294 296 297 298 297 296 295 294 293 294 294 294 294 294 294
266 264 264 265 267 269 270 272 272 271 272 272 272 273 273 274 275 276 277 276 276 278 279 281 284 287 290 292 295 296 296 297 296 295 294 293 293 294 294 294 294 294 294 295
273 269 268 268 269 272 272 271 271 272 272 271 270 270 269 270 270 272 273 274 275 277 280 284 287 290 292 293 295 295 295 294 294 293 293 293 294 293 293 293 293 294 295 295
281 276 273 271 271 271 272 272 271 269 267 266 267 267 268 269 271 274 276 278 280 283 285 287 289 290 292 293 293 293 293 292 292 293 293 293 293 292 292 293 294 294 295 296
285 281 277 274 272 271 271 270 269 269 267 265 265 267 268 270 272 275 277 280 282 284 286 287 289 290 291 291 291 291 291 291 292 292 292 292 292 292 293 294 295 295 296 296
288 283 279 274 270 270 270 268 267 266 264 264 266 267 269 270 272 274 276 279 281 283 285 287 288 289 290 290 290 290 291 291 291 292 293 294 294 295 295 295 296 296 297 297
293 286 283 279 274 272 272 270 266 265 266 267 267 269 271 272 274 276 278 280 282 284 286 287 289 289 290 290 290 291 292 292 294 295 296 297 297 297 297 297 297 298 299 299
297 292 287 282 278 275 273 271 269 268 267 268 269 270 272 274 276 278 280 282 284 286 288 289 291 293 294 294 295 296 296 297 298 299 299 299 299 298 298 299 300 301 301 302
300 297 293 289 286 283 280 277 274 272 270 270 271 272 273 275 278 280 282 284 287 289 291 294 297 299 300 301 302 303 303 303 303 303 302 302 302 302 302 303 303 303 304 305